[[{"header":{"parameterUnit":"m.s-1","parameterCategory":1,"la1":30.2991,"la2":30.254,"lo1":-89.0895,"lo2":-89.0444,"dy":0.0017,"dx":0.0017,"nx":28,"ny":28,"refTime":"2024-07-04T03:00:00:Z","depth":0,"parameterNumber":2,"parameterNumberName":"U-component_of_WINDS"},"data":[0,0,0,0,0,0,0,0,0,0,0,0,0,0,0,0,0,0,0,0,0,0,0,0,0,0,0,0,0,0,0,0,0,0,0,0,0,0,0,0,0,0,0,0,0,0,0,0,0,0,0,0,0,0,0,0,0,0,3.1328,3.1328,0,3.141,3.1411,3.1412,3.1382,3.1381,3.1379,3.1377,3.1468,3.1472,3.1476,0,0,0,0,0,0,0,0,0,0,0,0,0,3.115,3.1153,3.1328,3.1329,3.133,3.141,3.1411,3.1413,3.1383,3.138,3.1378,3.1376,3.1466,3.1471,3.1476,0,0,0,0,0,0,0,0,0,0,0,0,0,3.1229,3.1154,3.1327,3.1324,3.1325,3.141,3.1411,3.1413,3.1383,3.138,3.1378,3.1375,3.1465,3.1471,3.1477,3.1572,0,0,3.1496,3.1499,0,0,0,0,0,0,0,0,3.1225,3.1236,3.1324,3.1325,3.1325,3.1383,3.1382,3.1466,3.1384,3.1361,3.1377,3.1374,3.1442,3.145,3.1472,3.1576,3.158,3.1496,3.15,3.1503,3.1505,0,0,0,0,0,0,0,3.1219,3.1232,3.136,3.1325,3.1326,3.1321,3.1329,3.1398,3.1417,3.1363,3.1361,3.1371,3.1442,3.1466,3.1474,3.1581,3.1496,3.1502,3.1506,3.1508,3.1768,3.1772,0,0,0,0,0,0,3.1213,3.1228,3.1358,3.1363,3.1267,3.1326,3.1335,3.1368,3.1416,3.142,3.1373,3.1369,3.1457,3.1467,3.1477,3.1592,3.1503,3.1509,3.1512,3.1765,3.1769,3.1773,0,0,0,0,0,0,3.1209,3.1224,3.1354,3.1295,3.1311,3.1332,3.1369,3.1371,3.1394,3.1423,3.1427,3.1394,3.1455,3.1468,3.1548,3.1594,3.1512,3.1517,3.1762,3.1767,3.1771,3.1821,0,0,0,0,0,0,3.1204,3.1223,3.1258,3.1296,3.1314,3.1423,3.1371,3.1374,3.1405,3.14,3.1444,3.1448,3.1454,3.1539,3.1554,3.1601,3.1522,3.1758,3.1764,3.1769,3.1816,3.1827,3.1837,0,0,0,0,0,3.1198,3.127,3.126,3.1276,3.1358,3.1425,3.1436,3.1439,3.1408,3.1444,3.1463,3.1447,3.1587,3.1547,3.1565,3.1614,3.1755,3.1762,3.1769,3.1811,3.1825,3.1837,0,0,0,0,0,0,3.1239,3.1275,3.1264,3.135,3.1385,3.142,3.1465,3.1454,3.1499,3.1493,3.1497,3.1507,3.159,3.161,3.1566,3.1709,3.1666,3.1677,3.1692,3.1706,3.1717,3.171,3.1527,0,0,0,0,0,3.1258,3.1307,3.1337,3.1411,3.1428,3.1444,3.1474,3.1473,3.1509,3.1524,3.1549,3.1587,3.1639,3.1674,3.1724,3.1819,3.1828,3.1861,3.1872,3.1881,3.189,3.1943,3.1958,3.1796,3.1796,3.1796,0,0,3.1298,3.1323,3.1355,3.1419,3.1446,3.1499,3.1456,3.1515,3.1555,3.1534,3.161,3.163,3.1673,3.1761,3.1801,3.178,3.1937,3.189,3.1896,3.1901,3.1952,3.1967,3.198,3.1801,3.18,3.1799,0,0,3.1397,3.1422,3.1485,3.1513,3.1553,3.1563,3.1579,3.1616,3.1628,3.1704,3.169,3.1739,3.1829,3.186,3.1888,3.2001,3.1988,3.2017,3.2073,3.2124,3.2137,3.2148,3.2189,3.2203,3.2026,3.2027,3.2027,0,3.1442,3.152,3.152,3.158,3.1609,3.1591,3.1657,3.1684,3.174,3.1761,3.1737,3.185,3.1878,3.1973,3.2,3.2023,3.2042,3.2012,3.2135,3.2146,3.2157,3.2196,3.2211,3.203,3.2029,3.2029,3.2029,0,3.1574,3.1629,3.1676,3.1728,3.1763,3.1825,3.1837,3.1873,3.1869,3.1883,3.1962,3.1994,3.205,3.2073,3.2071,3.2169,3.2155,3.2133,3.209,3.2175,3.2212,3.2227,3.2035,3.2033,3.2032,3.2032,0,0,3.1701,3.1753,3.177,3.1794,3.1837,3.1881,3.1943,3.1997,3.2028,3.2067,3.212,3.2197,3.2177,3.2209,3.2211,3.2256,3.2344,3.2228,3.2229,3.2249,3.2454,3.247,3.2487,3.2335,3.2338,3.234,3.245,0,3.1805,3.1912,3.1915,3.2014,3.2065,3.205,3.2104,3.2138,3.2153,3.22,3.2217,3.2271,3.2241,3.226,3.2303,3.2323,3.2385,3.2316,3.2387,3.2389,3.2376,3.2506,3.2523,3.2625,3.2464,3.2467,3.2469,0,3.1939,3.1981,3.2085,3.2122,3.2144,3.2192,3.2242,3.2287,3.2326,3.2333,3.2369,3.2364,3.243,3.2385,3.2477,3.243,3.2459,3.2474,3.2478,3.2484,3.2434,3.2516,3.2657,3.2672,3.2491,3.2489,3.2488,0,3.2022,3.2105,3.2178,3.2199,3.2243,3.2278,3.2299,3.2335,3.2367,3.2411,3.2432,3.2484,3.2513,3.2554,3.2565,3.2531,3.2657,3.2613,3.2666,3.2666,3.2693,3.2691,3.2841,3.2712,3.2712,3.2712,3.2711,0,3.2137,3.2202,3.2215,3.226,3.2333,3.2336,3.2408,3.2427,3.2459,3.2508,3.2499,3.2546,3.2557,3.2607,3.2615,3.269,3.2704,3.2713,3.2714,3.2713,3.2712,3.2733,3.2726,3.2716,3.2715,3.2714,3.2713,0,3.2241,3.2253,3.2332,3.2367,3.2378,3.243,3.2461,3.2506,3.2519,3.2582,3.2597,3.2619,3.2678,3.2692,3.2762,3.2768,3.2856,3.2851,3.2843,3.2842,3.2895,3.289,3.3063,3.3086,3.2942,3.2944,3.2945,0,3.2314,3.2363,3.2404,3.2435,3.2457,3.2508,3.2541,3.2547,3.2582,3.263,3.2669,3.2725,3.2771,3.2865,3.2889,3.2943,3.2939,3.2996,3.2947,3.2945,3.294,3.2936,3.2942,3.3005,3.3007,3.3008,3.3009,0,3.2441,3.2445,3.2491,3.254,3.2578,3.2618,3.2655,3.2682,3.2694,3.2733,3.2792,3.2827,3.2898,3.2955,3.3009,3.3033,3.3024,3.3024,3.3039,3.3039,3.3031,3.3036,3.2868,3.302,3.3019,3.3018,3.3017,3.3017,3.2532,3.2575,3.261,3.2662,3.2691,3.2726,3.2769,3.2788,3.2836,3.2893,3.2895,3.2959,3.2998,3.3069,3.3096,3.3147,3.313,3.3152,3.3157,3.3163,3.3167,3.3023,3.3157,3.3157,3.3157,3.3156,3.3156,0,3.2659,3.2681,3.2729,3.2781,3.2822,3.2808,3.2849,3.2885,3.2941,3.2977,3.3022,3.309,3.3146,3.3173,3.3229,3.3265,3.3262,3.3279,3.3276,3.3282,3.3179,3.3161,3.328,3.328,3.328,3.328,3.328,3.328,3.273,3.2802,3.281,3.2896,3.2918,3.2979,3.3004,3.3037,3.3066,3.3142,3.3187,3.3204,3.3238,3.3295,3.3346,3.3353,3.3374,3.3394,3.3398,3.3302,3.3289,3.3277,3.3259,3.3398,3.3398,3.3497,3.3498,3.3498]},{"header":{"parameterUnit":"m.s-1","parameterCategory":1,"la1":30.2991,"la2":30.254,"lo1":-89.0895,"lo2":-89.0444,"dy":0.0017,"dx":0.0017,"nx":28,"ny":28,"refTime":"2024-07-04T03:00:00:Z","depth":0,"parameterNumber":3,"parameterNumberName":"V-component_of_WINDS"},"data":[0,0,0,0,0,0,0,0,0,0,0,0,0,0,0,0,0,0,0,0,0,0,0,0,0,0,0,0,0,0,0,0,0,0,0,0,0,0,0,0,0,0,0,0,0,0,0,0,0,0,0,0,0,0,0,0,0,0,3.2038,3.2038,0,3.2073,3.2073,3.2074,3.2082,3.2081,3.2081,3.2081,3.2113,3.2114,3.2115,0,0,0,0,0,0,0,0,0,0,0,0,0,3.1972,3.1973,3.2038,3.2038,3.2038,3.2073,3.2073,3.2074,3.2082,3.2081,3.2081,3.2081,3.2113,3.2114,3.2115,0,0,0,0,0,0,0,0,0,0,0,0,0,3.2003,3.1973,3.2038,3.2047,3.2048,3.2073,3.2073,3.2074,3.2082,3.2081,3.2081,3.2081,3.2112,3.2114,3.2116,3.2133,0,0,3.2121,3.2121,0,0,0,0,0,0,0,0,3.2001,3.2005,3.2045,3.2046,3.2047,3.2073,3.2062,3.2093,3.2082,3.2069,3.2081,3.208,3.21,3.2102,3.211,3.2134,3.2136,3.2121,3.2122,3.2122,3.2123,0,0,0,0,0,0,0,3.1999,3.2004,3.2051,3.2045,3.2047,3.2047,3.2051,3.2068,3.2086,3.207,3.207,3.2075,3.21,3.2108,3.211,3.2136,3.2121,3.2122,3.2123,3.2124,3.2173,3.2174,0,0,0,0,0,0,3.1996,3.2002,3.205,3.2052,3.2023,3.2049,3.2053,3.2065,3.2086,3.2088,3.2075,3.2075,3.2105,3.2109,3.2112,3.2131,3.2122,3.2124,3.2125,3.2173,3.2174,3.2174,0,0,0,0,0,0,3.1994,3.2,3.2049,3.2027,3.2034,3.205,3.2063,3.2066,3.2073,3.209,3.2092,3.208,3.2105,3.2109,3.2127,3.2133,3.2125,3.2126,3.2173,3.2173,3.2174,3.2172,0,0,0,0,0,0,3.1993,3.2,3.2008,3.2028,3.2035,3.2065,3.2064,3.2067,3.2077,3.2077,3.2095,3.2098,3.2105,3.2125,3.2129,3.2135,3.2127,3.2172,3.2173,3.2174,3.2172,3.2172,3.2173,0,0,0,0,0,3.199,3.2006,3.2008,3.2014,3.2046,3.2066,3.207,3.2079,3.2077,3.2084,3.2094,3.2097,3.2131,3.2126,3.2131,3.2138,3.2172,3.2173,3.2173,3.2171,3.2172,3.2173,0,0,0,0,0,0,3.1986,3.2009,3.2012,3.2034,3.2048,3.2067,3.2077,3.2081,3.2094,3.2094,3.2104,3.2108,3.2125,3.2133,3.2127,3.2154,3.2151,3.2153,3.2148,3.2149,3.215,3.2147,3.2129,0,0,0,0,0,3.1987,3.2003,3.2022,3.204,3.2047,3.206,3.207,3.2076,3.209,3.2096,3.2107,3.2119,3.2133,3.2141,3.2155,3.2173,3.2175,3.2179,3.218,3.218,3.2182,3.2189,3.2191,3.2176,3.2176,3.2176,0,0,3.1991,3.2005,3.2015,3.2039,3.2051,3.2065,3.2065,3.2081,3.2091,3.2098,3.2115,3.2123,3.2138,3.2155,3.2163,3.2162,3.2186,3.2181,3.2182,3.2183,3.219,3.2192,3.2193,3.2177,3.2177,3.2177,0,0,3.2004,3.2018,3.2034,3.2045,3.2062,3.207,3.2074,3.2092,3.2098,3.2116,3.212,3.2131,3.2155,3.2164,3.2172,3.2186,3.2189,3.219,3.2194,3.2201,3.2202,3.2203,3.2207,3.2208,3.2191,3.2191,3.2191,0,3.2006,3.203,3.2041,3.2056,3.2065,3.2072,3.2086,3.2096,3.2116,3.2122,3.2121,3.2149,3.2159,3.2178,3.2181,3.2188,3.2191,3.2188,3.2202,3.2203,3.2204,3.2207,3.2209,3.2191,3.2191,3.2191,3.2191,0,3.203,3.2046,3.2056,3.2076,3.2087,3.2101,3.2112,3.2121,3.2126,3.2134,3.215,3.2162,3.2177,3.2182,3.2187,3.2201,3.2199,3.22,3.2198,3.2205,3.2208,3.221,3.2191,3.2191,3.2191,3.2191,0,0,3.2043,3.2067,3.2071,3.2079,3.2097,3.2109,3.2122,3.2138,3.2144,3.2157,3.2168,3.2186,3.2186,3.2195,3.22,3.2207,3.2215,3.2206,3.2207,3.2207,3.2229,3.2228,3.223,3.2217,3.2217,3.2217,3.2227,0,3.2058,3.2084,3.2093,3.2114,3.2127,3.2132,3.2144,3.2155,3.2163,3.2173,3.2181,3.2193,3.2193,3.2198,3.2205,3.2213,3.222,3.2212,3.2225,3.2225,3.2221,3.2232,3.2231,3.2241,3.2229,3.2229,3.2229,0,3.2079,3.2093,3.2115,3.213,3.2136,3.2146,3.2159,3.2171,3.2182,3.2187,3.2196,3.22,3.2212,3.2209,3.2225,3.222,3.2225,3.2229,3.223,3.2231,3.2228,3.2232,3.2244,3.2245,3.2232,3.2232,3.2232,0,3.2085,3.2108,3.2124,3.2131,3.2149,3.2156,3.2163,3.2175,3.2183,3.2194,3.2198,3.2211,3.2217,3.2226,3.2232,3.223,3.2247,3.2245,3.225,3.2249,3.2253,3.2253,3.2265,3.2258,3.2257,3.2257,3.2257,0,3.21,3.2113,3.2126,3.2136,3.215,3.2159,3.2172,3.2179,3.2189,3.2199,3.2204,3.2213,3.2221,3.2231,3.2236,3.2247,3.225,3.2253,3.2254,3.2252,3.2252,3.2256,3.2255,3.2258,3.2258,3.2258,3.2258,0,3.2108,3.2118,3.2135,3.215,3.2154,3.2164,3.2176,3.2184,3.2191,3.2203,3.2206,3.2217,3.2228,3.2235,3.2249,3.2253,3.2265,3.2266,3.2261,3.2261,3.2265,3.2264,3.228,3.2282,3.2274,3.2274,3.2274,0,3.2117,3.2127,3.2143,3.215,3.2158,3.2169,3.2177,3.2185,3.2193,3.2206,3.2213,3.2224,3.2234,3.2251,3.2259,3.2269,3.227,3.2274,3.2271,3.2269,3.2269,3.2268,3.2268,3.2275,3.2275,3.2275,3.2275,0,3.2131,3.2135,3.2146,3.2159,3.2169,3.2179,3.2189,3.2194,3.2204,3.2212,3.2224,3.2231,3.2245,3.2256,3.2266,3.2272,3.2275,3.2276,3.2277,3.2275,3.2272,3.2273,3.2261,3.2275,3.2275,3.2275,3.2275,3.2275,3.2139,3.2147,3.2159,3.2171,3.218,3.2189,3.2197,3.2205,3.2215,3.2227,3.2231,3.2243,3.2252,3.2267,3.2273,3.2281,3.228,3.2283,3.2283,3.2284,3.2283,3.2271,3.2283,3.2283,3.2283,3.2283,3.2283,0,3.2151,3.2159,3.217,3.2184,3.2193,3.2196,3.2206,3.2213,3.2224,3.2233,3.2242,3.2254,3.2264,3.2272,3.2282,3.2287,3.2288,3.2289,3.2289,3.229,3.2283,3.2281,3.2288,3.2288,3.2288,3.2288,3.2288,3.2288,3.2159,3.2173,3.2178,3.2195,3.2202,3.2214,3.222,3.2228,3.2235,3.2248,3.2257,3.2262,3.2271,3.2281,3.2289,3.2291,3.2294,3.2295,3.2297,3.2291,3.229,3.229,3.2287,3.2296,3.2296,3.2302,3.2302,3.2303]}]]